Location: *
(43.9905°S, 176.4941°W)
Time: 19:38:16
(UTC+00:00)

Lacrosse 4 Rocket - Pass Details

Date: 08 December 2019
Orbit: 540 x 619 km, 68.0° (Epoch: 26 January)

Event Time Altitude Azimuth Distance (km) Brightness Sun altitude
Exits shadow 11:12:22 17° 88° (E) 1,591 3.6 -23.0°
Drops below altitude 10° 11:14:34 10° 116° (ESE) 2,013 4.4 -23.1°
Sets 11:17:27 0° 135° (SE) 2,924 5.6 -23.1°
